KC0VVH Weather Reports


time (UTC)temp
C
wind
direction
speed
KPH
gust
KPH
rain 1hr
cm
rain 24hr
cm
rain mn
cm
humidity
%
barometer
mb
20260505124536 10 0 0.0 0.0 0.00 0.00 0.00 58 1017.9
20260505123615 10 0 0.0 0.0 0.00 0.00 0.00 63 1017.9
20260505122703 10 0 0.0 1.6 0.00 0.00 0.00 62 1017.9
20260505121815 10 0 0.0 0.0 0.00 0.00 0.00 47 1017.9
20260505120903 11 205 1.6 8.0 0.00 0.00 0.00 48 1017.9
20260505120015 11 205 1.6 8.0 0.00 0.00 0.00 62 1017.9
20260505115415 11 205 1.6 6.4 0.00 0.00 0.00 63 1017.9
20260505114515 11 205 1.6 8.0 0.00 0.00 0.00 64 1017.9
20260505113615 11 205 1.6 9.7 0.00 0.00 0.00 64 1017.9
20260505112715 11 207 4.8 11.3 0.00 0.00 0.00 64 1017.9
20260505111803 11 214 1.6 11.3 0.00 0.00 0.00 65 1017.9
20260505110915 11 215 0.0 6.4 0.00 0.00 0.00 65 1017.9
20260505101815 11 189 0.0 4.8 0.00 0.00 0.00 62 1017.9
20260505100915 12 189 0.0 4.8 0.00 0.00 0.00 61 1017.9
20260505100024 12 190 0.0 4.8 0.00 0.00 0.00 59 1017.9
20260505095415 12 181 3.2 16.1 0.00 0.00 0.00 59 1017.9
20260505094503 12 202 4.8 14.5 0.00 0.00 0.00 60 1017.9
20260505093615 11 205 1.6 9.7 0.00 0.00 0.00 61 1017.9
20260505092703 11 208 1.6 6.4 0.00 0.00 0.00 62 1017.9
20260505091815 11 211 1.6 8.0 0.00 0.00 0.00 61 1017.9
20260505090915 11 196 3.2 11.3 0.00 0.00 0.00 62 1017.9
20260505090003 10 0 0.0 0.0 0.00 0.00 0.00 59 1017.9
20260505085415 11 0 0.0 0.0 0.00 0.00 0.00 59 1017.9
20260505084515 11 198 0.0 4.8 0.00 0.00 0.00 58 1017.9
20260505083603 11 0 0.0 0.0 0.00 0.00 0.00 60 1017.9
20260505082715 10 0 0.0 0.0 0.00 0.00 0.00 60 1017.9
20260505081803 10 0 0.0 0.0 0.00 0.00 0.00 63 1017.9
20260505080903 10 0 0.0 1.6 0.00 0.00 0.00 66 1017.9
20260505080003 10 0 0.0 1.6 0.00 0.00 0.00 67 1017.9
20260505075415 10 0 0.0 0.0 0.00 0.00 0.00 68 1017.9
20260505074503 10 0 0.0 0.0 0.00 0.00 0.00 67 1017.9
20260505073615 10 0 0.0 0.0 0.00 0.00 0.00 67 1017.9
20260505063603 12 0 0.0 0.0 0.00 0.00 0.00 58 1017.9
20260505062703 13 0 0.0 0.0 0.00 0.00 0.00 57 1017.9
20260505061803 13 198 0.0 3.2 0.00 0.00 0.00 57 1017.9
20260505060903 13 0 0.0 1.6 0.00 0.00 0.00 58 1017.9
20260505060003 13 0 0.0 0.0 0.00 0.00 0.00 57 1017.9
20260505055403 13 0 0.0 0.0 0.00 0.00 0.00 56 1017.9
20260505054503 13 0 0.0 0.0 0.00 0.00 0.00 55 1017.9
20260505053603 14 0 0.0 0.0 0.00 0.00 0.00 53 1017.9
20260505052703 14 0 0.0 0.0 0.00 0.00 0.00 52 1017.9
20260505051803 14 198 0.0 6.4 0.00 0.00 0.00 52 1017.9
20260505050903 15 198 0.0 8.0 0.00 0.00 0.00 52 1017.9
20260505040903 16 0 0.0 1.6 0.00 0.00 0.00 45 1017.9
20260505040003 16 271 0.0 3.2 0.00 0.00 0.00 45 1017.9
20260505035403 16 271 0.0 3.2 0.00 0.00 0.00 45 1017.9
20260505034503 16 271 0.0 6.4 0.00 0.00 0.00 46 1017.9
20260505033603 16 0 0.0 0.0 0.00 0.00 0.00 46 1017.9
20260505032724 16 0 0.0 0.0 0.00 0.00 0.00 46 1017.9
20260505031803 16 0 0.0 0.0 0.00 0.00 0.00 46 1017.9
20260505030903 16 0 0.0 0.0 0.00 0.00 0.00 47 1017.9
20260505030003 16 0 0.0 0.0 0.00 0.00 0.00 47 1017.9
20260505025403 16 0 0.0 0.0 0.00 0.00 0.00 47 1017.9
20260505024503 16 271 0.0 3.2 0.00 0.00 0.00 48 1017.9
20260505023603 16 0 0.0 0.0 0.00 0.00 0.00 48 1017.9
20260505022703 16 332 0.0 8.0 0.00 0.00 0.00 48 1017.9
20260505021803 16 306 3.2 12.9 0.00 0.00 0.00 48 1017.9
20260505020903 16 327 0.0 11.3 0.00 0.00 0.00 47 1017.9
20260505020024 16 265 1.6 9.7 0.00 0.00 0.00 46 1017.9
20260505015403 16 289 1.6 12.9 0.00 0.00 0.00 45 1017.9
20260505014524 17 297 1.6 14.5 0.00 0.00 0.00 45 1017.9
20260505013624 17 283 1.6 22.5 0.00 0.00 0.00 44 1017.9
20260505012703 17 290 4.8 17.7 0.00 0.00 0.00 43 1017.9
20260505011803 18 282 6.4 22.5 0.00 0.00 0.00 41 1017.9
20260505010903 19 294 6.4 32.2 0.00 0.00 0.00 37 1017.9
20260505010024 20 273 1.6 16.1 0.00 0.00 0.00 32 1017.9
20260505005403 20 237 3.2 19.3 0.00 0.00 0.00 30 1017.9
20260505004503 20 191 4.8 19.3 0.00 0.00 0.00 30 1017.9
20260505003603 21 191 8.0 20.9 0.00 0.00 0.00 29 1017.9
20260505002724 21 198 6.4 20.9 0.00 0.00 0.00 28 1017.9
20260505001803 21 240 3.2 16.1 0.00 0.00 0.00 28 1017.9
20260505000903 21 233 1.6 9.7 0.00 0.00 0.00 29 1017.9
20260505000003 21 196 8.0 30.6 0.00 0.00 0.00 29 1017.9
20260504235403 21 196 11.3 30.6 0.00 0.00 0.00 29 1017.9
20260504234503 21 217 3.2 22.5 0.00 0.00 0.00 30 1017.9
20260504233603 21 181 1.6 16.1 0.00 0.00 0.00 33 1017.9
20260504232703 21 199 4.8 16.1 0.00 0.00 0.00 33 1017.9
20260504231803 21 58 4.8 19.3 0.00 0.00 0.00 34 1017.9
20260504230903 20 40 3.2 16.1 0.00 0.00 0.00 35 1017.9
20260504230003 20 44 6.4 16.1 0.00 0.00 0.00 35 1017.9
20260504225403 20 50 3.2 14.5 0.00 0.00 0.00 34 1017.9
20260504224503 20 206 4.8 14.5 0.00 0.00 0.00 34 1017.9
20260504223603 20 208 3.2 19.3 0.00 0.00 0.00 34 1017.9
20260504222703 21 153 0.0 8.0 0.00 0.00 0.00 36 1017.9
20260504221803 20 193 1.6 14.5 0.00 0.00 0.00 34 1017.9
20260504220903 21 197 3.2 14.5 0.00 0.00 0.00 31 1017.9
20260504220003 21 222 1.6 9.7 0.00 0.00 0.00 29 1017.9
20260504215403 21 250 3.2 9.7 0.00 0.00 0.00 28 1017.9
20260504214503 22 346 0.0 4.8 0.00 0.00 0.00 28 1017.9
20260504213603 22 351 1.6 12.9 0.00 0.00 0.00 29 1017.9
20260504212724 22 338 1.6 9.7 0.00 0.00 0.00 30 1017.9
20260504211803 21 333 1.6 11.3 0.00 0.00 0.00 32 1017.9
20260504210903 21 8 6.4 19.3 0.00 0.00 0.00 31 1017.9
20260504210003 21 7 8.0 20.9 0.00 0.00 0.00 32 1017.9
20260504205403 21 4 8.0 30.6 0.00 0.00 0.00 32 1017.9
20260504204524 21 9 9.7 30.6 0.00 0.00 0.00 32 1017.9
20260504203624 22 328 9.7 38.6 0.00 0.00 0.00 31 1017.9
20260504202703 23 334 4.8 16.1 0.00 0.00 0.00 26 1017.9
20260504201803 22 28 3.2 12.9 0.00 0.00 0.00 27 1017.9
20260504200903 21 90 3.2 12.9 0.00 0.00 0.00 32 1017.9
20260504200024 21 178 3.2 12.9 0.00 0.00 0.00 32 1017.9
20260504195403 21 68 3.2 14.5 0.00 0.00 0.00 32 1017.9
20260504194503 20 68 3.2 9.7 0.00 0.00 0.00 34 1017.9
20260504193603 20 67 1.6 8.0 0.00 0.00 0.00 36 1017.9
20260504192703 20 141 1.6 9.7 0.00 0.00 0.00 37 1017.9
20260504191824 20 62 0.0 8.0 0.00 0.00 0.00 37 1017.9
20260504190903 20 40 3.2 16.1 0.00 0.00 0.00 38 1017.9
20260504190003 20 58 1.6 11.3 0.00 0.00 0.00 37 1017.9
20260504185403 20 57 1.6 8.0 0.00 0.00 0.00 36 1017.9
20260504184503 20 66 4.8 9.7 0.00 0.00 0.00 37 1017.9
20260504183603 20 61 4.8 14.5 0.00 0.00 0.00 36 1017.9
20260504182703 20 4 1.6 6.4 0.00 0.00 0.00 37 1017.9
20260504181803 20 26 4.8 9.7 0.00 0.00 0.00 37 1017.9
20260504180924 19 7 1.6 8.0 0.00 0.00 0.00 38 1017.9
20260504180003 20 5 3.2 12.9 0.00 0.00 0.00 36 1017.9
20260504175403 20 22 4.8 19.3 0.00 0.00 0.00 39 1017.9
20260504174503 19 65 6.4 16.1 0.00 0.00 0.00 42 1017.9
20260504173624 18 61 3.2 14.5 0.00 0.00 0.00 43 1017.9
20260504172703 17 60 0.0 3.2 0.00 0.00 0.00 45 1017.9
20260504171803 17 0 0.0 1.6 0.00 0.00 0.00 46 1017.9
20260504170903 17 0 0.0 1.6 0.00 0.00 0.00 48 1017.9
20260504150903 18 64 3.2 12.9 0.00 0.00 0.00 40 1017.9
20260504140903 15 173 0.0 9.7 0.00 0.00 0.00 49 1017.9